This demonstration page uses our WeatherBlox Daily Observations layout. Learn more.

Left ArrowRight Arrow

Hourly Observations for March 17, 2017

Temp ( °F °C ) Dew Point ( °F °C ) Humidity (%) Winds ( mph kmh ) Pressure ( in mb ) Visibility ( mi km ) Precip ( " mm )
12:53 am 00:53 Clear 23 -5 17 -8.3 78 78 N N/A 30.32 1027 10 16 N/A
1:53 am 01:53 Clear 22 -5.6 16 -8.9 78 78 N N/A 30.32 1027 10 16 N/A
2:53 am 02:53 Clear 21 -6.1 17 -8.3 85 85 N N/A 30.32 1027 10 16 N/A
3:53 am 03:53 Clear 24 -4.4 20 -6.7 84 84 N N/A 30.30 1026 10 16 N/A
4:53 am 04:53 Partly Cloudy 29 -1.7 21 -6.1 72 72 E 5 7 30.29 1026 10 16 N/A
5:53 am 05:53 Cloudy 31 -0.6 22 -5.6 69 69 N N/A 30.29 1026 10 16 N/A
6:53 am 06:53 Cloudy 34 1.1 17 -8.3 50 50 SE 5 7 30.28 1025 10 16 N/A
7:53 am 07:53 Cloudy 35 1.7 17 -8.3 48 48 SE 3 6 30.28 1025 10 16 N/A
8:53 am 08:53 Cloudy 36 2.2 19 -7.2 50 50 SSE 6 9 30.28 1026 10 16 N/A
9:53 am 09:53 Cloudy with Light Rain 34 1.1 26 -3.3 73 73 SSE 7 11 30.27 1025 5 8 N/A
10:19 am 10:19 Cloudy with Rain 34 1.1 28 -2.2 79 79 VRB 6 9 30.27 1025 4 6 0.02 0.51
10:53 am 10:53 Cloudy with Light Rain 34 1.1 29 -1.7 82 82 VRB 6 9 30.24 1024 8 13 0.03 0.76
11:19 am 11:19 Cloudy with Rain 34 1.1 31 -0.6 89 89 SE 3 6 30.24 1024 3 4 0.06 1.52
11:27 am 11:27 Cloudy with Rain 34 1.1 31 -0.6 89 89 VRB 7 11 30.24 1024 3 4 0.08 2.03
11:39 am 11:39 Cloudy with Light Rain 34 1.1 32 undefined 92 92 SE 7 11 30.21 1023 4 6 0.09 2.29
11:53 am 11:53 Cloudy with Light Rain 34 1.1 33 0.6 97 97 VRB 7 11 30.19 1022 6 10 0.09 2.29
12:01 pm 12:01 Cloudy 35 1.7 34 1.1 96 96 SSE 7 11 30.18 1022 7 11 N/A
12:45 pm 12:45 Cloudy 36 2.2 35 1.7 97 97 S 5 7 30.21 1023 7 11 N/A
12:53 pm 12:53 Cloudy with Light Rain 36 2.2 35 1.7 97 97 SSE 3 6 30.19 1023 3 5 N/A
1:01 pm 13:01 Cloudy with Light Rain 36 2.2 35 1.7 97 97 SSE 3 6 30.18 1022 3 4 N/A
1:10 pm 13:10 Cloudy with Mist and Fog 36 2.2 36 2.2 100 100 VRB 5 7 30.18 1022 4 6 N/A
1:53 pm 13:53 Cloudy 37 2.8 35 1.7 93 93 SE 7 11 30.16 1021 9 14 N/A
2:53 pm 14:53 Cloudy 39 3.9 35 1.7 86 86 SSE 7 11 30.12 1020 10 16 N/A
3:43 pm 15:43 Cloudy with Thunderstorms 39 3.9 35 1.7 86 86 S 9 15 30.09 1019 10 16 N/A
3:51 pm 15:51 Cloudy with Thunderstorms 37 3 36 2 93 93 VRB 5 7 30.09 1019 2 2 0.08 2.03
3:53 pm 15:53 Cloudy with Strong Thunderstorms 38 3.3 36 2.2 93 93 SSE 5 7 30.09 1019 1 2 0.09 2.29
4:01 pm 16:01 Cloudy with Thunderstorms 38 3.3 37 2.8 97 97 SSE 7 11 30.09 1019 3 5 N/A
4:28 pm 16:28 Cloudy with Nearby Thunderstorms 38 3.3 37 2.8 97 97 VRB 6 9 30.09 1019 3 4 0.01 0.25
4:35 pm 16:35 Cloudy with Nearby Thunderstorms 38 3.3 37 2.8 97 97 VRB 6 9 30.09 1019 2 3 0.01 0.25
4:43 pm 16:43 Cloudy with Mist and Fog 38 3.3 37 2.8 97 97 VRB 7 11 30.09 1019 2 3 0.01 0.25
4:53 pm 16:53 Cloudy with Mist and Fog 39 3.9 38 3.3 96 96 N N/A 30.07 1018 2 3 0.01 0.25
4:55 pm 16:55 Cloudy with Mist and Fog 39 3.9 38 3.3 96 96 N N/A 30.09 1019 2 2 N/A
5:28 pm 17:28 Cloudy with Mist and Fog 39 3.9 38 3.3 96 96 SSE 5 7 30.09 1019 2 2 N/A
5:53 pm 17:53 Cloudy with Mist and Fog 39 3.9 39 3.9 100 100 S 3 6 30.07 1018 1 2 N/A
6:30 pm 18:30 Cloudy with Mist and Fog 39 3.9 39 3.9 100 100 SSE 3 6 30.06 1018 1 2 N/A
6:53 pm 18:53 Cloudy with Mist and Fog 39 3.9 39 3.9 100 100 N N/A 30.06 1018 2 2 N/A
7:10 pm 19:10 Cloudy with Mist and Fog 39 3.9 39 3.9 100 100 N N/A 30.09 1019 2 3 N/A
7:19 pm 19:19 Cloudy with Mist and Fog 39 3.9 39 3.9 100 100 SSE 3 6 30.09 1019 2 3 N/A
7:53 pm 19:53 Cloudy with Mist and Fog 40 4.4 40 4.4 100 100 N N/A 30.07 1018 3 4 N/A
8:08 pm 20:08 Cloudy with Mist and Fog 40 4.4 40 4.4 100 100 N N/A 30.09 1019 2 2 N/A
8:32 pm 20:32 Cloudy with Mist and Fog 40 4.4 40 4.4 100 100 N N/A 30.09 1019 1 1 N/A
8:53 pm 20:53 Cloudy with Mist and Fog 40 4.4 40 4.4 100 100 N N/A 30.08 1019 1 1 N/A
9:29 pm 21:29 Cloudy with Mist and Fog 40 4.4 40 4.4 100 100 N N/A 30.09 1019 1 2 N/A
9:43 pm 21:43 Cloudy with Mist and Fog 40 4.4 40 4.4 100 100 N N/A 30.09 1019 1 1 N/A
9:53 pm 21:53 Cloudy with Mist and Fog 40 4.4 40 4.4 100 100 N N/A 30.09 1019 1 1 N/A
10:53 pm 22:53 Mostly Cloudy with Fog 40 4.4 40 4.4 100 100 N N/A 30.08 1019 1 1 N/A
11:53 pm 23:53 Cloudy with Mist and Fog 41 5 41 5 100 100 N N/A 30.08 1019 1 2 N/A

Powered by AerisWeather